PIA326 OPQT-OPIS

Flight info

Callsign PIA326
Flight time 1h 1m
Altitude 31000
Route ZB J139 KALMI
Aircraft A320/M-SDE3FGHIRWY/LB1

Departure

Time 2026-05-07 12:26
Airport Quetta International Airport (OPQT)

Arrival

Time 2026-05-07 13:27
Airport Islamabad International Airport (OPIS)
Time Latitude Longitude Altitude Speed Heading
2026-05-07 12:07 30.24829 66.94836 5121 ft 0 kts 96°
2026-05-07 12:20 30.24829 66.94831 5120 ft 3 kts 98°
2026-05-07 12:20 30.24839 66.94804 5120 ft 4 kts 134°
2026-05-07 12:21 30.24851 66.94790 5121 ft 0 kts 134°
2026-05-07 12:23 30.24845 66.94796 5122 ft 3 kts 136°
2026-05-07 12:23 30.24810 66.94813 5121 ft 8 kts 167°
2026-05-07 12:23 30.24746 66.94800 5120 ft 10 kts 216°
2026-05-07 12:24 30.24692 66.94735 5119 ft 13 kts 227°
2026-05-07 12:24 30.24620 66.94650 5115 ft 16 kts 222°
2026-05-07 12:24 30.24565 66.94590 5110 ft 6 kts 260°
2026-05-07 12:24 30.24592 66.94544 5109 ft 7 kts 320°
2026-05-07 12:25 30.24598 66.94538 5110 ft 0 kts 320°
2026-05-07 12:25 30.24599 66.94538 5110 ft 0 kts 320°
2026-05-07 12:25 30.24663 66.94473 5108 ft 43 kts 317°
2026-05-07 12:26 30.25058 66.94040 5103 ft 110 kts 316°
2026-05-07 12:26 30.25760 66.93278 5096 ft 164 kts 316°
2026-05-07 12:26 30.26638 66.92354 5560 ft 172 kts 315°
2026-05-07 12:26 30.27526 66.91429 6335 ft 172 kts 315°
2026-05-07 12:27 30.28410 66.90481 6937 ft 177 kts 316°
2026-05-07 12:27 30.29327 66.89443 7130 ft 183 kts 313°
2026-05-07 12:27 30.30187 66.88404 6901 ft 180 kts 313°
2026-05-07 12:27 30.31098 66.87288 6454 ft 202 kts 312°
2026-05-07 12:28 30.32093 66.86100 6888 ft 205 kts 312°
2026-05-07 12:28 30.33075 66.84946 7454 ft 204 kts 313°
2026-05-07 12:28 30.34078 66.83749 7985 ft 205 kts 313°
2026-05-07 12:28 30.35074 66.82532 8388 ft 215 kts 312°
2026-05-07 12:29 30.36146 66.81228 8521 ft 239 kts 313°
2026-05-07 12:29 30.37334 66.79792 9024 ft 248 kts 313°
2026-05-07 12:29 30.38518 66.78348 9892 ft 246 kts 313°
2026-05-07 12:29 30.39700 66.76899 10546 ft 251 kts 313°
2026-05-07 12:30 30.40929 66.75400 11081 ft 260 kts 316°
2026-05-07 12:30 30.42458 66.74247 11624 ft 269 kts 340°
2026-05-07 12:30 30.44318 66.73998 12297 ft 275 kts
2026-05-07 12:30 30.46121 66.74784 12937 ft 284 kts 34°
2026-05-07 12:31 30.47447 66.76533 13449 ft 299 kts 64°
2026-05-07 12:31 30.48219 66.78797 14036 ft 305 kts 67°
2026-05-07 12:31 30.48983 66.81101 14659 ft 307 kts 66°
2026-05-07 12:31 30.49765 66.83419 15297 ft 310 kts 67°
2026-05-07 12:32 30.50559 66.85757 15927 ft 313 kts 67°
2026-05-07 12:32 30.51382 66.88173 16132 ft 333 kts 68°
2026-05-07 12:32 30.52260 66.90745 16279 ft 353 kts 66°
2026-05-07 12:32 30.53186 66.93468 16406 ft 372 kts 68°
2026-05-07 12:33 30.55160 66.99318 16761 ft 403 kts 68°
2026-05-07 12:33 30.56188 67.02373 17248 ft 408 kts 68°
2026-05-07 12:33 30.57224 67.05433 17787 ft 413 kts 67°
2026-05-07 12:34 30.58278 67.08551 18333 ft 416 kts 68°
2026-05-07 12:34 30.59338 67.11694 18831 ft 420 kts 66°
2026-05-07 12:34 30.60404 67.14858 19324 ft 423 kts 67°
2026-05-07 12:34 30.61481 67.18051 19849 ft 426 kts 66°
2026-05-07 12:35 30.62565 67.21261 20333 ft 429 kts 67°
2026-05-07 12:35 30.63606 67.24363 20813 ft 431 kts 67°
2026-05-07 12:35 30.64690 67.27613 21281 ft 434 kts 65°
2026-05-07 12:35 30.65804 67.30934 21774 ft 436 kts 67°
2026-05-07 12:36 30.66897 67.34183 22210 ft 439 kts 65°
2026-05-07 12:36 30.68011 67.37503 22647 ft 441 kts 66°
2026-05-07 12:36 30.69126 67.40840 23055 ft 445 kts 66°
2026-05-07 12:36 30.70247 67.44196 23462 ft 447 kts 66°
2026-05-07 12:37 30.71376 67.47573 23803 ft 450 kts 66°
2026-05-07 12:37 30.72509 67.50968 24132 ft 453 kts 66°
2026-05-07 12:37 30.73655 67.54401 24455 ft 455 kts 66°
2026-05-07 12:37 30.74803 67.57847 24787 ft 458 kts 65°
2026-05-07 12:38 30.75953 67.61309 25092 ft 460 kts 65°
2026-05-07 12:38 30.77108 67.64797 25397 ft 463 kts 65°
2026-05-07 12:38 30.78265 67.68296 25682 ft 465 kts 65°
2026-05-07 12:38 30.79435 67.71835 25978 ft 468 kts 65°
2026-05-07 12:39 30.80610 67.75381 26266 ft 470 kts 65°
2026-05-07 12:39 30.81788 67.78947 26537 ft 473 kts 65°
2026-05-07 12:39 30.82970 67.82528 26778 ft 476 kts 65°
2026-05-07 12:39 30.84159 67.86132 27035 ft 478 kts 65°
2026-05-07 12:40 30.85338 67.89709 27282 ft 480 kts 65°
2026-05-07 12:40 30.86538 67.93349 27527 ft 482 kts 65°
2026-05-07 12:40 30.87740 67.96999 27738 ft 484 kts 65°
2026-05-07 12:40 30.88945 68.00665 27960 ft 486 kts 65°
2026-05-07 12:41 30.90153 68.04351 28154 ft 488 kts 65°
2026-05-07 12:41 30.91362 68.08051 28410 ft 489 kts 65°
2026-05-07 12:41 30.92569 68.11749 28712 ft 489 kts 65°
2026-05-07 12:41 30.93777 68.15451 29015 ft 489 kts 64°
2026-05-07 12:42 30.94983 68.19141 29319 ft 488 kts 64°
2026-05-07 12:42 30.96192 68.22843 29625 ft 488 kts 64°
2026-05-07 12:42 30.97397 68.26533 29927 ft 488 kts 64°
2026-05-07 12:42 30.98604 68.30234 30178 ft 488 kts 64°
2026-05-07 12:43 30.99805 68.33925 30411 ft 488 kts 64°
2026-05-07 12:43 31.01008 68.37624 30655 ft 488 kts 64°
2026-05-07 12:43 31.02214 68.41332 30913 ft 489 kts 64°
2026-05-07 12:43 31.03417 68.45042 31176 ft 489 kts 64°
2026-05-07 12:44 31.04600 68.48704 31412 ft 489 kts 64°
2026-05-07 12:44 31.05812 68.52462 31666 ft 489 kts 64°
2026-05-07 12:44 31.06993 68.56125 31936 ft 488 kts 64°
2026-05-07 12:44 31.08187 68.59828 32202 ft 488 kts 64°
2026-05-07 12:45 31.09381 68.63540 32459 ft 488 kts 64°
2026-05-07 12:45 31.10575 68.67253 32701 ft 488 kts 63°
2026-05-07 12:45 31.12965 68.74682 32795 ft 489 kts 63°
2026-05-07 12:46 31.15353 68.82128 32797 ft 489 kts 64°
2026-05-07 12:46 31.17736 68.89576 32788 ft 489 kts 64°
2026-05-07 12:47 31.20106 68.97010 32792 ft 489 kts 64°
2026-05-07 12:47 31.22477 69.04461 32786 ft 489 kts 64°
2026-05-07 12:48 31.24831 69.11869 32782 ft 488 kts 64°
2026-05-07 12:48 31.27192 69.19311 32782 ft 488 kts 64°
2026-05-07 12:49 31.29546 69.26760 32793 ft 488 kts 64°
2026-05-07 12:49 31.31890 69.34198 32790 ft 487 kts 64°
2026-05-07 12:50 31.34480 69.41480 32800 ft 479 kts 54°
2026-05-07 12:50 31.38531 69.47458 32794 ft 463 kts 36°
2026-05-07 12:51 31.43714 69.51706 32792 ft 452 kts 25°
2026-05-07 12:51 31.49104 69.55503 32833 ft 453 kts 25°
2026-05-07 12:52 31.54508 69.59332 32828 ft 452 kts 25°
2026-05-07 12:52 31.59890 69.63152 32812 ft 452 kts 25°
2026-05-07 12:53 31.65277 69.66965 32816 ft 452 kts 25°
2026-05-07 12:53 31.70642 69.70761 32814 ft 452 kts 25°
2026-05-07 12:54 31.76029 69.74584 32802 ft 452 kts 25°
2026-05-07 12:54 31.81407 69.78422 32813 ft 452 kts 25°
2026-05-07 12:55 31.86792 69.82269 32799 ft 452 kts 25°
2026-05-07 12:55 31.92173 69.86104 32792 ft 452 kts 25°
2026-05-07 12:56 31.97562 69.89953 32814 ft 454 kts 26°
2026-05-07 12:56 32.02940 69.93807 32776 ft 452 kts 26°
2026-05-07 12:57 32.08310 69.97656 32797 ft 452 kts 26°
2026-05-07 12:57 32.13657 70.01485 32793 ft 452 kts 26°
2026-05-07 12:58 32.19042 70.05351 32791 ft 453 kts 26°
2026-05-07 12:58 32.24434 70.09229 32767 ft 453 kts 26°
2026-05-07 12:59 32.29817 70.13108 32789 ft 453 kts 26°
2026-05-07 12:59 32.35212 70.17010 32780 ft 453 kts 26°
2026-05-07 13:00 32.40596 70.20867 32771 ft 452 kts 25°
2026-05-07 13:00 32.46022 70.24615 32788 ft 452 kts 25°
2026-05-07 13:01 32.50546 70.27715 32784 ft 451 kts 25°
2026-05-07 13:01 32.55921 70.31436 32789 ft 452 kts 25°
2026-05-07 13:02 32.61332 70.35220 32766 ft 451 kts 25°
2026-05-07 13:02 32.66724 70.39058 32768 ft 453 kts 26°
2026-05-07 13:03 32.72045 70.43117 32762 ft 455 kts 28°
2026-05-07 13:03 32.77336 70.47248 32752 ft 455 kts 28°
2026-05-07 13:04 32.82634 70.51337 32750 ft 455 kts 27°
2026-05-07 13:04 32.87526 70.56155 32773 ft 465 kts 44°
2026-05-07 13:05 32.91747 70.62013 32768 ft 466 kts 45°
2026-05-07 13:05 32.95933 70.67912 32774 ft 466 kts 45°
2026-05-07 13:06 33.00125 70.73816 32778 ft 467 kts 45°
2026-05-07 13:06 33.04327 70.79715 32789 ft 467 kts 45°
2026-05-07 13:07 33.08514 70.85598 31973 ft 464 kts 45°
2026-05-07 13:07 33.10603 70.88534 31388 ft 465 kts 45°
2026-05-07 13:07 33.12695 70.91474 30810 ft 465 kts 46°
2026-05-07 13:08 33.14783 70.94416 30244 ft 465 kts 46°
2026-05-07 13:08 33.16878 70.97375 29655 ft 466 kts 46°
2026-05-07 13:08 33.18974 71.00339 28990 ft 467 kts 46°
2026-05-07 13:08 33.21074 71.03310 28349 ft 468 kts 46°
2026-05-07 13:09 33.23179 71.06290 27719 ft 470 kts 46°
2026-05-07 13:09 33.25287 71.09277 27104 ft 471 kts 47°
2026-05-07 13:09 33.27404 71.12278 26513 ft 472 kts 47°
2026-05-07 13:09 33.29523 71.15278 25920 ft 473 kts 47°
2026-05-07 13:10 33.31637 71.18274 25348 ft 474 kts 47°
2026-05-07 13:10 33.33739 71.21262 24788 ft 475 kts 47°
2026-05-07 13:10 33.35865 71.24288 24238 ft 475 kts 47°
2026-05-07 13:10 33.37992 71.27319 23685 ft 472 kts 47°
2026-05-07 13:11 33.40086 71.30306 23106 ft 468 kts 47°
2026-05-07 13:11 33.42170 71.33285 22518 ft 464 kts 47°
2026-05-07 13:11 33.44236 71.36244 21995 ft 461 kts 47°
2026-05-07 13:11 33.46288 71.39182 21487 ft 458 kts 47°
2026-05-07 13:12 33.48256 71.42158 20942 ft 455 kts 53°
2026-05-07 13:12 33.49863 71.45426 20403 ft 454 kts 61°
2026-05-07 13:12 33.51046 71.48937 19880 ft 454 kts 70°
2026-05-07 13:12 33.51778 71.52615 19383 ft 453 kts 78°
2026-05-07 13:13 33.52085 71.56360 18904 ft 451 kts 83°
2026-05-07 13:13 33.52306 71.60069 18429 ft 447 kts 83°
2026-05-07 13:13 33.52529 71.63760 17937 ft 443 kts 83°
2026-05-07 13:13 33.52755 71.67430 17394 ft 439 kts 83°
2026-05-07 13:14 33.52980 71.71020 16861 ft 436 kts 83°
2026-05-07 13:14 33.53206 71.74625 16338 ft 433 kts 83°
2026-05-07 13:14 33.53427 71.78211 15841 ft 429 kts 83°
2026-05-07 13:14 33.53646 71.81763 15396 ft 426 kts 83°
2026-05-07 13:15 33.53861 71.85292 14931 ft 424 kts 83°
2026-05-07 13:15 33.54072 71.88798 14408 ft 416 kts 83°
2026-05-07 13:15 33.54270 71.92186 13913 ft 398 kts 83°
2026-05-07 13:15 33.54459 71.95422 13400 ft 382 kts 83°
2026-05-07 13:16 33.54643 71.98540 12825 ft 368 kts 83°
2026-05-07 13:16 33.54823 72.01558 12252 ft 356 kts 84°
2026-05-07 13:16 33.54996 72.04468 11692 ft 346 kts 84°
2026-05-07 13:16 33.55163 72.07302 11144 ft 337 kts 84°
2026-05-07 13:17 33.55326 72.10074 10604 ft 329 kts 84°
2026-05-07 13:17 33.55485 72.12777 10094 ft 322 kts 84°
2026-05-07 13:17 33.55642 72.15412 9682 ft 312 kts 84°
2026-05-07 13:17 33.55794 72.17960 9329 ft 300 kts 84°
2026-05-07 13:18 33.55938 72.20400 9021 ft 287 kts 84°
2026-05-07 13:18 33.56073 72.22747 8724 ft 276 kts 85°
2026-05-07 13:18 33.56200 72.24988 8430 ft 265 kts 85°
2026-05-07 13:18 33.56324 72.27152 8143 ft 255 kts 85°
2026-05-07 13:19 33.56445 72.29244 7852 ft 248 kts 85°
2026-05-07 13:19 33.56565 72.31301 7629 ft 247 kts 85°
2026-05-07 13:19 33.56681 72.33350 7384 ft 246 kts 86°
2026-05-07 13:19 33.56796 72.35390 7145 ft 244 kts 86°
2026-05-07 13:20 33.56912 72.37417 6916 ft 243 kts 86°
2026-05-07 13:20 33.57028 72.39439 6693 ft 242 kts 86°
2026-05-07 13:20 33.57142 72.41438 6464 ft 240 kts 86°
2026-05-07 13:20 33.57253 72.43430 6236 ft 239 kts 87°
2026-05-07 13:21 33.57362 72.45377 5992 ft 235 kts 88°
2026-05-07 13:21 33.57470 72.47346 5751 ft 232 kts 88°
2026-05-07 13:21 33.57571 72.49237 5513 ft 228 kts 87°
2026-05-07 13:21 33.57673 72.51114 5302 ft 223 kts 88°
2026-05-07 13:22 33.57775 72.52956 5081 ft 219 kts 87°
2026-05-07 13:22 33.57876 72.54747 4916 ft 210 kts 86°
2026-05-07 13:22 33.57973 72.56463 4698 ft 202 kts 87°
2026-05-07 13:22 33.58063 72.58119 4503 ft 194 kts 87°
2026-05-07 13:23 33.58147 72.59725 4361 ft 194 kts 91°
2026-05-07 13:23 33.58063 72.61319 4215 ft 189 kts 99°
2026-05-07 13:23 33.57862 72.62862 4118 ft 186 kts 102°
2026-05-07 13:23 33.57634 72.64394 4055 ft 186 kts 101°
2026-05-07 13:24 33.57400 72.65922 3991 ft 185 kts 103°
2026-05-07 13:24 33.57165 72.67447 3811 ft 184 kts 102°
2026-05-07 13:24 33.56945 72.68873 3622 ft 163 kts 102°
2026-05-07 13:24 33.56747 72.70146 3417 ft 147 kts 103°
2026-05-07 13:25 33.56565 72.71321 3234 ft 142 kts 103°
2026-05-07 13:25 33.56383 72.72483 3068 ft 141 kts 102°
2026-05-07 13:25 33.56206 72.73624 2891 ft 138 kts 103°
2026-05-07 13:25 33.56030 72.74756 2717 ft 138 kts 103°
2026-05-07 13:26 33.55854 72.75882 2549 ft 137 kts 100°
2026-05-07 13:26 33.55680 72.77000 2365 ft 137 kts 99°
2026-05-07 13:26 33.55505 72.78122 2194 ft 137 kts 103°
2026-05-07 13:26 33.55331 72.79239 2018 ft 136 kts 104°
2026-05-07 13:27 33.55151 72.80354 1836 ft 136 kts 103°
2026-05-07 13:27 33.54983 72.81429 1762 ft 121 kts 102°
2026-05-07 13:27 33.54858 72.82246 1754 ft 75 kts 101°
2026-05-07 13:27 33.54793 72.82657 1752 ft 25 kts 99°
2026-05-07 13:28 33.54778 72.82765 1749 ft 13 kts 99°
2026-05-07 13:28 33.54766 72.82880 1761 ft 15 kts 92°
2026-05-07 13:28 33.54781 72.83017 1766 ft 18 kts 79°
2026-05-07 13:28 33.54821 72.83169 1767 ft 20 kts 71°
2026-05-07 13:29 33.54866 72.83336 1769 ft 22 kts 79°
2026-05-07 13:29 33.54907 72.83455 1765 ft 15 kts 19°
2026-05-07 13:29 33.55006 72.83481 1770 ft 14 kts
2026-05-07 13:29 33.55066 72.83421 1770 ft 11 kts 283°
2026-05-07 13:30 33.55083 72.83307 1769 ft 17 kts 280°
2026-05-07 13:30 33.55110 72.83135 1771 ft 24 kts 280°
2026-05-07 13:30 33.55141 72.82935 1770 ft 25 kts 281°
2026-05-07 13:30 33.55172 72.82724 1771 ft 22 kts 279°
2026-05-07 13:31 33.55214 72.82598 1770 ft 9 kts 347°
2026-05-07 13:31 33.55269 72.82603 1771 ft 7 kts
2026-05-07 13:31 33.55316 72.82613 1772 ft 8 kts 10°
2026-05-07 13:31 33.55390 72.82633 1770 ft 12 kts 25°
2026-05-07 13:32 33.55446 72.82711 1773 ft 13 kts 55°
2026-05-07 13:32 33.55504 72.82811 1773 ft 16 kts 56°
2026-05-07 13:32 33.55571 72.82927 1771 ft 18 kts 56°
2026-05-07 13:32 33.55638 72.83043 1770 ft 13 kts 53°
2026-05-07 13:33 33.55714 72.83085 1770 ft 10 kts 10°
2026-05-07 13:33 33.55777 72.83104 1772 ft 8 kts 37°
2026-05-07 13:33 33.55780 72.83164 1770 ft 7 kts 101°
2026-05-07 13:33 33.55774 72.83201 1770 ft 0 kts 99°